| time (UTC) | temp F | wind direction | speed MPH | gust MPH | rain 1hr in | rain 24hr in | rain mn in | humidity % | barometer mb |
| 20260906214502 | 72 | 300 | 2.0 | 8.0 | 0.00 | 0.00 | 0.00 | 58 | 1014.5 |
| 20260906214002 | 72 | 294 | 3.0 | 8.0 | 0.00 | 0.00 | 0.00 | 59 | 1014.5 |
| 20260906213502 | 72 | 302 | 3.0 | 8.0 | 0.00 | 0.00 | 0.00 | 57 | 1014.5 |
| 20260906213002 | 72 | 270 | 3.0 | 9.0 | 0.00 | 0.00 | 0.00 | 58 | 1014.5 |
| 20260906212502 | 72 | 255 | 2.0 | 9.0 | 0.00 | 0.00 | 0.00 | 57 | 1014.5 |
| 20260906212002 | 72 | 256 | 2.0 | 7.0 | 0.00 | 0.00 | 0.00 | 57 | 1014.5 |
| 20260906211523 | 72 | 263 | 2.0 | 8.0 | 0.00 | 0.00 | 0.00 | 55 | 1014.5 |
| 20260906211002 | 71 | 262 | 3.0 | 10.0 | 0.00 | 0.00 | 0.00 | 54 | 1014.5 |
| 20260906210502 | 71 | 268 | 3.0 | 10.0 | 0.00 | 0.00 | 0.00 | 57 | 1014.5 |
| 20260906210003 | 71 | 285 | 3.0 | 10.0 | 0.00 | 0.00 | 0.00 | 58 | 1014.5 |
| 20260906205502 | 71 | 271 | 3.0 | 9.0 | 0.00 | 0.00 | 0.00 | 59 | 1014.5 |
| 20260906205023 | 70 | 259 | 3.0 | 9.0 | 0.00 | 0.00 | 0.00 | 57 | 1014.5 |
| 20260906204523 | 70 | 245 | 4.0 | 9.0 | 0.00 | 0.00 | 0.00 | 57 | 1014.5 |
| 20260906204002 | 70 | 245 | 3.0 | 9.0 | 0.00 | 0.00 | 0.00 | 57 | 1014.5 |
| 20260906203503 | 71 | 242 | 2.0 | 8.0 | 0.00 | 0.00 | 0.00 | 59 | 1014.5 |
| 20260906203023 | 70 | 239 | 2.0 | 9.0 | 0.00 | 0.00 | 0.00 | 60 | 1014.5 |
| 20260906202502 | 70 | 241 | 3.0 | 9.0 | 0.00 | 0.00 | 0.00 | 59 | 1014.5 |
| 20260906202002 | 70 | 236 | 3.0 | 8.0 | 0.00 | 0.00 | 0.00 | 63 | 1014.5 |
| 20260906201502 | 69 | 251 | 3.0 | 9.0 | 0.00 | 0.00 | 0.00 | 62 | 1014.5 |
| 20260906201002 | 69 | 257 | 3.0 | 9.0 | 0.00 | 0.00 | 0.00 | 63 | 1014.5 |
| 20260906200502 | 69 | 235 | 3.0 | 8.0 | 0.00 | 0.00 | 0.00 | 66 | 1014.5 |
| 20260906200002 | 68 | 234 | 4.0 | 12.0 | 0.00 | 0.00 | 0.00 | 65 | 1014.5 |
| 20260906195502 | 68 | 238 | 3.0 | 12.0 | 0.00 | 0.00 | 0.00 | 64 | 1014.5 |
| 20260906195002 | 68 | 231 | 3.0 | 6.0 | 0.00 | 0.00 | 0.00 | 67 | 1014.5 |
| 20260906194502 | 67 | 234 | 3.0 | 6.0 | 0.00 | 0.00 | 0.00 | 67 | 1014.5 |
| 20260906194002 | 67 | 242 | 4.0 | 9.0 | 0.00 | 0.00 | 0.00 | 68 | 1014.5 |
| 20260906193502 | 67 | 244 | 3.0 | 9.0 | 0.00 | 0.00 | 0.00 | 67 | 1014.5 |
| 20260906193023 | 68 | 245 | 3.0 | 10.0 | 0.00 | 0.00 | 0.00 | 69 | 1014.5 |
| 20260906192502 | 67 | 241 | 3.0 | 10.0 | 0.00 | 0.00 | 0.00 | 68 | 1014.5 |
| 20260906192002 | 68 | 234 | 3.0 | 9.0 | 0.00 | 0.00 | 0.00 | 69 | 1014.5 |
| 20260906191502 | 68 | 243 | 2.0 | 8.0 | 0.00 | 0.00 | 0.00 | 70 | 1014.5 |
| 20260906191002 | 67 | 252 | 3.0 | 9.0 | 0.00 | 0.00 | 0.00 | 71 | 1014.5 |
| 20260906190502 | 66 | 252 | 3.0 | 9.0 | 0.00 | 0.00 | 0.00 | 72 | 1014.5 |
| 20260906190002 | 66 | 228 | 3.0 | 8.0 | 0.00 | 0.00 | 0.00 | 72 | 1014.5 |
| 20260906185502 | 66 | 211 | 2.0 | 6.0 | 0.00 | 0.00 | 0.00 | 72 | 1014.5 |
| 20260906185002 | 66 | 226 | 2.0 | 6.0 | 0.00 | 0.00 | 0.00 | 73 | 1014.5 |
| 20260906184502 | 65 | 224 | 2.0 | 7.0 | 0.00 | 0.00 | 0.00 | 74 | 1014.5 |
| 20260906184023 | 65 | 227 | 3.0 | 8.0 | 0.00 | 0.00 | 0.00 | 75 | 1014.5 |
| 20260906183502 | 64 | 251 | 2.0 | 8.0 | 0.00 | 0.00 | 0.00 | 74 | 1014.5 |
| 20260906183023 | 64 | 232 | 2.0 | 6.0 | 0.00 | 0.00 | 0.00 | 76 | 1014.5 |
| 20260906182502 | 63 | 207 | 3.0 | 7.0 | 0.00 | 0.00 | 0.00 | 77 | 1014.5 |
| 20260906182002 | 63 | 206 | 3.0 | 7.0 | 0.00 | 0.00 | 0.00 | 78 | 1014.5 |
| 20260906181502 | 63 | 214 | 3.0 | 7.0 | 0.00 | 0.00 | 0.00 | 78 | 1014.5 |
| 20260906181002 | 63 | 214 | 3.0 | 8.0 | 0.00 | 0.00 | 0.00 | 78 | 1014.5 |
| 20260906180502 | 62 | 209 | 3.0 | 8.0 | 0.00 | 0.00 | 0.00 | 79 | 1014.5 |
| 20260906180002 | 62 | 235 | 3.0 | 6.0 | 0.00 | 0.00 | 0.00 | 79 | 1014.5 |
| 20260906175502 | 62 | 248 | 3.0 | 7.0 | 0.00 | 0.00 | 0.00 | 80 | 1014.5 |
| 20260906175002 | 62 | 223 | 3.0 | 7.0 | 0.00 | 0.00 | 0.00 | 81 | 1014.5 |
| 20260906174502 | 61 | 223 | 3.0 | 6.0 | 0.00 | 0.00 | 0.00 | 81 | 1014.5 |
| 20260906174002 | 61 | 216 | 2.0 | 6.0 | 0.00 | 0.00 | 0.00 | 82 | 1014.5 |
| 20260906173502 | 60 | 220 | 2.0 | 6.0 | 0.00 | 0.00 | 0.00 | 82 | 1014.5 |
| 20260906173002 | 60 | 233 | 2.0 | 8.0 | 0.00 | 0.00 | 0.00 | 83 | 1014.5 |
| 20260906172502 | 60 | 233 | 3.0 | 9.0 | 0.00 | 0.00 | 0.00 | 83 | 1014.5 |
| 20260906172002 | 60 | 241 | 3.0 | 9.0 | 0.00 | 0.00 | 0.00 | 84 | 1014.5 |
| 20260906171502 | 60 | 261 | 2.0 | 5.0 | 0.00 | 0.00 | 0.00 | 85 | 1014.5 |
| 20260906171004 | 60 | 248 | 2.0 | 6.0 | 0.00 | 0.00 | 0.00 | 86 | 1014.5 |
| 20260906170502 | 59 | 221 | 2.0 | 6.0 | 0.00 | 0.00 | 0.00 | 86 | 1014.5 |
| 20260906170023 | 59 | 207 | 2.0 | 5.0 | 0.00 | 0.00 | 0.00 | 86 | 1014.5 |
| 20260906165502 | 58 | 223 | 2.0 | 5.0 | 0.00 | 0.00 | 0.00 | 87 | 1014.5 |
| 20260906165002 | 58 | 230 | 2.0 | 8.0 | 0.00 | 0.00 | 0.00 | 88 | 1014.5 |
| 20260906164502 | 58 | 230 | 2.0 | 8.0 | 0.00 | 0.00 | 0.00 | 88 | 1014.5 |
| 20260906164002 | 58 | 240 | 1.0 | 5.0 | 0.00 | 0.00 | 0.00 | 88 | 1014.5 |
| 20260906163502 | 57 | 240 | 1.0 | 5.0 | 0.00 | 0.00 | 0.00 | 89 | 1014.5 |
| 20260906163023 | 57 | 240 | 2.0 | 7.0 | 0.00 | 0.00 | 0.00 | 89 | 1014.5 |
| 20260906162502 | 57 | 242 | 2.0 | 7.0 | 0.00 | 0.00 | 0.00 | 89 | 1014.5 |
| 20260906162002 | 57 | 239 | 2.0 | 5.0 | 0.00 | 0.00 | 0.00 | 90 | 1014.5 |
| 20260906161502 | 57 | 229 | 2.0 | 5.0 | 0.00 | 0.00 | 0.00 | 90 | 1014.5 |
| 20260906161023 | 57 | 229 | 2.0 | 7.0 | 0.00 | 0.00 | 0.00 | 90 | 1014.5 |
| 20260906160502 | 57 | 234 | 2.0 | 7.0 | 0.00 | 0.00 | 0.00 | 90 | 1014.5 |
| 20260906160003 | 57 | 220 | 1.0 | 6.0 | 0.00 | 0.00 | 0.00 | 91 | 1014.5 |
| 20260906155502 | 56 | 231 | 1.0 | 5.0 | 0.00 | 0.00 | 0.00 | 91 | 1014.5 |
| 20260906155023 | 56 | 250 | 2.0 | 5.0 | 0.00 | 0.00 | 0.00 | 91 | 1014.5 |
| 20260906154502 | 56 | 246 | 2.0 | 8.0 | 0.00 | 0.00 | 0.00 | 91 | 1014.5 |
| 20260906154002 | 56 | 246 | 3.0 | 8.0 | 0.00 | 0.00 | 0.00 | 91 | 1014.5 |
| 20260906153502 | 56 | 247 | 2.0 | 7.0 | 0.00 | 0.00 | 0.00 | 91 | 1014.5 |
| 20260906153024 | 56 | 242 | 1.0 | 5.0 | 0.00 | 0.00 | 0.00 | 92 | 1014.5 |
| 20260906152502 | 56 | 249 | 1.0 | 3.0 | 0.00 | 0.00 | 0.00 | 92 | 1014.5 |
| 20260906152002 | 56 | 249 | 2.0 | 7.0 | 0.00 | 0.00 | 0.00 | 92 | 1014.5 |
| 20260906151502 | 56 | 241 | 2.0 | 7.0 | 0.00 | 0.00 | 0.00 | 92 | 1014.5 |
| 20260906151002 | 56 | 235 | 2.0 | 7.0 | 0.00 | 0.00 | 0.00 | 92 | 1014.5 |
| 20260906150502 | 55 | 237 | 2.0 | 6.0 | 0.00 | 0.00 | 0.00 | 92 | 1014.5 |
| 20260906150002 | 55 | 244 | 2.0 | 6.0 | 0.00 | 0.00 | 0.00 | 92 | 1014.5 |
| 20260906145523 | 55 | 241 | 2.0 | 5.0 | 0.00 | 0.00 | 0.00 | 92 | 1014.5 |
| 20260906145023 | 56 | 222 | 1.0 | 4.0 | 0.00 | 0.00 | 0.00 | 92 | 1014.5 |
| 20260906144523 | 56 | 217 | 1.0 | 4.0 | 0.00 | 0.00 | 0.00 | 92 | 1014.5 |
| 20260906144002 | 55 | 203 | 1.0 | 4.0 | 0.00 | 0.00 | 0.00 | 92 | 1014.5 |
| 20260906143502 | 55 | 198 | 1.0 | 4.0 | 0.00 | 0.00 | 0.00 | 92 | 1014.5 |
| 20260906143002 | 55 | 212 | 1.0 | 4.0 | 0.00 | 0.00 | 0.00 | 93 | 1014.5 |
| 20260906142503 | 55 | 215 | 1.0 | 3.0 | 0.00 | 0.00 | 0.00 | 93 | 1014.5 |
| 20260906142002 | 55 | 210 | 1.0 | 3.0 | 0.00 | 0.00 | 0.00 | 93 | 1014.5 |
| 20260906141502 | 55 | 202 | 1.0 | 4.0 | 0.00 | 0.00 | 0.00 | 93 | 1014.5 |
| 20260906141002 | 55 | 198 | 1.0 | 4.0 | 0.00 | 0.00 | 0.00 | 93 | 1014.5 |
| 20260906140502 | 55 | 198 | 1.0 | 5.0 | 0.00 | 0.00 | 0.00 | 93 | 1014.5 |
| 20260906140003 | 55 | 199 | 1.0 | 5.0 | 0.00 | 0.00 | 0.00 | 93 | 1014.5 |
| 20260906135502 | 55 | 197 | 1.0 | 4.0 | 0.00 | 0.00 | 0.00 | 93 | 1014.5 |
| 20260906135023 | 55 | 195 | 1.0 | 4.0 | 0.00 | 0.00 | 0.00 | 92 | 1014.5 |
| 20260906134523 | 55 | 195 | 1.0 | 3.0 | 0.00 | 0.00 | 0.00 | 93 | 1014.5 |
| 20260906134002 | 55 | 196 | 1.0 | 3.0 | 0.00 | 0.00 | 0.00 | 92 | 1014.5 |
| 20260906133503 | 55 | 198 | 0.0 | 2.0 | 0.00 | 0.00 | 0.00 | 93 | 1014.5 |
| 20260906133002 | 55 | 198 | 1.0 | 4.0 | 0.00 | 0.00 | 0.00 | 93 | 1014.5 |
| 20260906132502 | 55 | 198 | 1.0 | 4.0 | 0.00 | 0.00 | 0.00 | 93 | 1014.5 |
| 20260906132002 | 55 | 198 | 0.0 | 3.0 | 0.00 | 0.00 | 0.00 | 93 | 1014.5 |
| 20260906131502 | 55 | 199 | 1.0 | 3.0 | 0.00 | 0.00 | 0.00 | 93 | 1014.5 |
| 20260906131002 | 55 | 200 | 1.0 | 4.0 | 0.00 | 0.00 | 0.00 | 92 | 1014.5 |
| 20260906130502 | 55 | 200 | 1.0 | 4.0 | 0.00 | 0.00 | 0.00 | 92 | 1014.5 |
| 20260906130003 | 55 | 200 | 1.0 | 3.0 | 0.00 | 0.00 | 0.00 | 92 | 1014.5 |
| 20260906125502 | 55 | 198 | 0.0 | 3.0 | 0.00 | 0.00 | 0.00 | 93 | 1014.5 |
| 20260906125023 | 55 | 200 | 0.0 | 3.0 | 0.00 | 0.00 | 0.00 | 93 | 1014.5 |
| 20260906124502 | 55 | 203 | 0.0 | 3.0 | 0.00 | 0.00 | 0.00 | 92 | 1014.5 |
| 20260906124002 | 55 | 231 | 0.0 | 3.0 | 0.00 | 0.00 | 0.00 | 92 | 1014.5 |
| 20260906123024 | 55 | 229 | 1.0 | 4.0 | 0.00 | 0.00 | 0.00 | 92 | 1014.5 |
| 20260906122002 | 55 | 222 | 0.0 | 3.0 | 0.00 | 0.00 | 0.00 | 93 | 1014.6 |
| 20260906121502 | 55 | 248 | 1.0 | 3.0 | 0.00 | 0.00 | 0.00 | 93 | 1014.6 |
| 20260906121002 | 55 | 251 | 2.0 | 7.0 | 0.00 | 0.00 | 0.00 | 93 | 1014.6 |
| 20260906120503 | 55 | 255 | 2.0 | 7.0 | 0.00 | 0.00 | 0.00 | 93 | 1014.6 |
| 20260906120002 | 55 | 254 | 2.0 | 4.0 | 0.00 | 0.00 | 0.00 | 92 | 1014.6 |
| 20260906115502 | 55 | 248 | 1.0 | 4.0 | 0.00 | 0.00 | 0.00 | 92 | 1014.6 |
| 20260906115002 | 55 | 251 | 1.0 | 3.0 | 0.00 | 0.00 | 0.00 | 92 | 1014.6 |
| 20260906114502 | 55 | 251 | 1.0 | 4.0 | 0.00 | 0.00 | 0.00 | 92 | 1014.6 |
| 20260906114002 | 55 | 251 | 1.0 | 4.0 | 0.00 | 0.00 | 0.00 | 92 | 1014.6 |
| 20260906113523 | 55 | 250 | 1.0 | 4.0 | 0.00 | 0.00 | 0.00 | 92 | 1014.6 |
| 20260906113023 | 56 | 248 | 1.0 | 7.0 | 0.00 | 0.00 | 0.00 | 92 | 1014.6 |
| 20260906112503 | 56 | 244 | 2.0 | 7.0 | 0.00 | 0.00 | 0.00 | 93 | 1014.5 |
| 20260906112002 | 56 | 251 | 1.0 | 6.0 | 0.00 | 0.00 | 0.00 | 93 | 1014.5 |
| 20260906111502 | 56 | 260 | 1.0 | 6.0 | 0.00 | 0.00 | 0.00 | 93 | 1014.5 |
| 20260906111002 | 56 | 249 | 1.0 | 4.0 | 0.00 | 0.00 | 0.00 | 93 | 1014.5 |
| 20260906110523 | 56 | 248 | 1.0 | 3.0 | 0.00 | 0.00 | 0.00 | 93 | 1014.5 |
| 20260906110023 | 56 | 243 | 1.0 | 6.0 | 0.00 | 0.00 | 0.00 | 93 | 1014.8 |
| 20260906105502 | 56 | 241 | 2.0 | 6.0 | 0.00 | 0.00 | 0.00 | 93 | 1014.8 |
| 20260906105002 | 56 | 245 | 2.0 | 8.0 | 0.00 | 0.00 | 0.00 | 93 | 1014.8 |
| 20260906104523 | 56 | 246 | 1.0 | 8.0 | 0.00 | 0.00 | 0.00 | 93 | 1014.8 |
| 20260906104023 | 56 | 247 | 1.0 | 4.0 | 0.00 | 0.00 | 0.00 | 93 | 1014.8 |
| 20260906103523 | 56 | 251 | 1.0 | 6.0 | 0.00 | 0.00 | 0.00 | 92 | 1014.8 |
| 20260906103024 | 56 | 246 | 2.0 | 7.0 | 0.00 | 0.00 | 0.00 | 92 | 1014.8 |
| 20260906102503 | 56 | 246 | 2.0 | 7.0 | 0.00 | 0.00 | 0.00 | 92 | 1014.8 |
| 20260906102002 | 56 | 247 | 1.0 | 4.0 | 0.00 | 0.00 | 0.00 | 92 | 1014.8 |
| 20260906101524 | 56 | 246 | 1.0 | 5.0 | 0.00 | 0.00 | 0.00 | 93 | 1014.8 |
| 20260906101003 | 56 | 243 | 1.0 | 5.0 | 0.00 | 0.00 | 0.00 | 92 | 1014.8 |
| 20260906100502 | 56 | 243 | 2.0 | 5.0 | 0.00 | 0.00 | 0.00 | 92 | 1014.8 |
| 20260906100002 | 56 | 245 | 1.0 | 5.0 | 0.00 | 0.00 | 0.00 | 92 | 1014.8 |
| 20260906095502 | 56 | 243 | 2.0 | 6.0 | 0.00 | 0.00 | 0.00 | 92 | 1014.8 |
| 20260906095024 | 57 | 241 | 1.0 | 6.0 | 0.00 | 0.00 | 0.00 | 92 | 1014.8 |
| 20260906094502 | 57 | 240 | 1.0 | 5.0 | 0.00 | 0.00 | 0.00 | 92 | 1014.8 |
| 20260906094002 | 57 | 241 | 1.0 | 5.0 | 0.00 | 0.00 | 0.00 | 92 | 1014.8 |
| 20260906093502 | 57 | 254 | 0.0 | 3.0 | 0.00 | 0.00 | 0.00 | 92 | 1014.8 |
| 20260906093024 | 57 | 257 | 1.0 | 4.0 | 0.00 | 0.00 | 0.00 | 92 | 1014.8 |
| 20260906092524 | 57 | 259 | 0.0 | 4.0 | 0.00 | 0.00 | 0.00 | 92 | 1014.8 |
| 20260906092002 | 57 | 194 | 0.0 | 1.0 | 0.00 | 0.00 | 0.00 | 92 | 1014.8 |
| 20260906091502 | 57 | 194 | 0.0 | 2.0 | 0.00 | 0.00 | 0.00 | 92 | 1014.8 |
| 20260906091002 | 57 | 194 | 0.0 | 3.0 | 0.00 | 0.00 | 0.00 | 92 | 1014.8 |
| 20260906090502 | 57 | 191 | 1.0 | 4.0 | 0.00 | 0.00 | 0.00 | 92 | 1014.8 |
| 20260906090003 | 57 | 184 | 2.0 | 5.0 | 0.00 | 0.00 | 0.00 | 92 | 1014.8 |
| 20260906085502 | 57 | 175 | 2.0 | 5.0 | 0.00 | 0.00 | 0.00 | 92 | 1014.8 |
| 20260906085002 | 57 | 169 | 1.0 | 5.0 | 0.00 | 0.00 | 0.00 | 92 | 1014.8 |
| 20260906084524 | 57 | 163 | 1.0 | 5.0 | 0.00 | 0.00 | 0.00 | 92 | 1014.8 |
| 20260906084002 | 57 | 164 | 1.0 | 5.0 | 0.00 | 0.00 | 0.00 | 92 | 1014.8 |
| 20260906083502 | 57 | 167 | 1.0 | 4.0 | 0.00 | 0.00 | 0.00 | 92 | 1014.8 |
| 20260906083002 | 57 | 165 | 1.0 | 4.0 | 0.00 | 0.00 | 0.00 | 92 | 1014.8 |
| 20260906082502 | 57 | 166 | 1.0 | 5.0 | 0.00 | 0.00 | 0.00 | 92 | 1014.8 |
| 20260906082003 | 57 | 169 | 1.0 | 5.0 | 0.00 | 0.00 | 0.00 | 91 | 1014.8 |
| 20260906081523 | 57 | 170 | 1.0 | 6.0 | 0.00 | 0.00 | 0.00 | 91 | 1014.8 |
| 20260906081002 | 57 | 171 | 1.0 | 6.0 | 0.00 | 0.00 | 0.00 | 91 | 1014.8 |
| 20260906080524 | 57 | 168 | 1.0 | 4.0 | 0.00 | 0.00 | 0.00 | 91 | 1014.8 |
| 20260906080003 | 57 | 159 | 1.0 | 6.0 | 0.00 | 0.00 | 0.00 | 91 | 1014.8 |
| 20260906075502 | 57 | 172 | 1.0 | 5.0 | 0.00 | 0.00 | 0.00 | 91 | 1014.8 |
| 20260906075002 | 57 | 187 | 1.0 | 5.0 | 0.00 | 0.00 | 0.00 | 91 | 1014.8 |
| 20260906074503 | 57 | 184 | 1.0 | 6.0 | 0.00 | 0.00 | 0.00 | 91 | 1014.8 |
| 20260906074002 | 57 | 183 | 1.0 | 6.0 | 0.00 | 0.00 | 0.00 | 90 | 1014.8 |
| 20260906073502 | 57 | 181 | 1.0 | 4.0 | 0.00 | 0.00 | 0.00 | 90 | 1014.8 |
| 20260906073002 | 57 | 172 | 1.0 | 4.0 | 0.00 | 0.00 | 0.00 | 90 | 1014.8 |
| 20260906072502 | 57 | 173 | 1.0 | 5.0 | 0.00 | 0.00 | 0.00 | 90 | 1014.8 |
| 20260906072023 | 57 | 176 | 1.0 | 5.0 | 0.00 | 0.00 | 0.00 | 90 | 1014.8 |
| 20260906071524 | 57 | 180 | 0.0 | 3.0 | 0.00 | 0.00 | 0.00 | 90 | 1014.8 |
| 20260906071002 | 57 | 179 | 0.0 | 3.0 | 0.00 | 0.00 | 0.00 | 89 | 1014.8 |
| 20260906070524 | 57 | 177 | 1.0 | 3.0 | 0.00 | 0.00 | 0.00 | 89 | 1014.8 |
| 20260906070006 | 57 | 176 | 0.0 | 3.0 | 0.00 | 0.00 | 0.00 | 89 | 1014.8 |
| 20260906065503 | 57 | 179 | 1.0 | 3.0 | 0.00 | 0.00 | 0.00 | 89 | 1014.8 |
| 20260906065003 | 57 | 181 | 1.0 | 4.0 | 0.00 | 0.00 | 0.00 | 89 | 1014.8 |
| 20260906064503 | 58 | 183 | 1.0 | 4.0 | 0.00 | 0.00 | 0.00 | 89 | 1014.8 |
| 20260906064002 | 58 | 187 | 1.0 | 3.0 | 0.00 | 0.00 | 0.00 | 88 | 1014.8 |
| 20260906063502 | 58 | 187 | 1.0 | 3.0 | 0.00 | 0.00 | 0.00 | 88 | 1014.8 |
| 20260906063002 | 58 | 187 | 0.0 | 3.0 | 0.00 | 0.00 | 0.00 | 88 | 1014.8 |
| 20260906062524 | 58 | 187 | 0.0 | 4.0 | 0.00 | 0.00 | 0.00 | 88 | 1014.8 |
| 20260906062003 | 58 | 187 | 0.0 | 4.0 | 0.00 | 0.00 | 0.00 | 87 | 1014.8 |
| 20260906061524 | 58 | 188 | 0.0 | 2.0 | 0.00 | 0.00 | 0.00 | 87 | 1014.8 |
| 20260906061003 | 58 | 187 | 0.0 | 3.0 | 0.00 | 0.00 | 0.00 | 87 | 1014.8 |
| 20260906060502 | 58 | 187 | 1.0 | 4.0 | 0.00 | 0.00 | 0.00 | 87 | 1014.8 |
| 20260906060003 | 58 | 188 | 1.0 | 4.0 | 0.00 | 0.00 | 0.00 | 86 | 1014.8 |
| 20260906055503 | 58 | 188 | 1.0 | 3.0 | 0.00 | 0.00 | 0.00 | 86 | 1014.8 |
| 20260906055024 | 58 | 188 | 0.0 | 2.0 | 0.00 | 0.00 | 0.00 | 86 | 1014.8 |
| 20260906054503 | 58 | 188 | 0.0 | 2.0 | 0.00 | 0.00 | 0.00 | 86 | 1014.8 |
| 20260906054002 | 58 | 188 | 1.0 | 4.0 | 0.00 | 0.00 | 0.00 | 85 | 1014.8 |
| 20260906053524 | 58 | 188 | 1.0 | 4.0 | 0.00 | 0.00 | 0.00 | 85 | 1014.8 |
| 20260906053002 | 58 | 189 | 0.0 | 3.0 | 0.00 | 0.00 | 0.00 | 85 | 1014.8 |
| 20260906052524 | 58 | 191 | 0.0 | 3.0 | 0.00 | 0.00 | 0.00 | 85 | 1014.8 |
| 20260906052003 | 59 | 192 | 0.0 | 3.0 | 0.00 | 0.00 | 0.00 | 84 | 1014.8 |
| 20260906051503 | 59 | 192 | 0.0 | 3.0 | 0.00 | 0.00 | 0.00 | 84 | 1014.8 |
| 20260906051024 | 59 | 192 | 0.0 | 1.0 | 0.00 | 0.00 | 0.00 | 84 | 1014.8 |
| 20260906050524 | 59 | 192 | 0.0 | 3.0 | 0.00 | 0.00 | 0.00 | 84 | 1014.8 |
| 20260906050002 | 59 | 194 | 0.0 | 3.0 | 0.00 | 0.00 | 0.00 | 83 | 1014.8 |
| 20260906045502 | 59 | 197 | 1.0 | 3.0 | 0.00 | 0.00 | 0.00 | 83 | 1014.8 |
| 20260906045002 | 59 | 198 | 1.0 | 4.0 | 0.00 | 0.00 | 0.00 | 83 | 1014.8 |
| 20260906044503 | 59 | 199 | 2.0 | 4.0 | 0.00 | 0.00 | 0.00 | 82 | 1014.8 |
| 20260906044002 | 59 | 200 | 2.0 | 5.0 | 0.00 | 0.00 | 0.00 | 82 | 1014.8 |
| 20260906043524 | 60 | 202 | 2.0 | 5.0 | 0.00 | 0.00 | 0.00 | 81 | 1014.8 |
| 20260906043003 | 60 | 206 | 1.0 | 3.0 | 0.00 | 0.00 | 0.00 | 80 | 1014.8 |
| 20260906042503 | 60 | 210 | 1.0 | 4.0 | 0.00 | 0.00 | 0.00 | 79 | 1014.8 |
| 20260906042002 | 60 | 212 | 1.0 | 4.0 | 0.00 | 0.00 | 0.00 | 79 | 1014.8 |
| 20260906041503 | 60 | 213 | 1.0 | 3.0 | 0.00 | 0.00 | 0.00 | 78 | 1014.8 |
| 20260906041003 | 60 | 214 | 0.0 | 3.0 | 0.00 | 0.00 | 0.00 | 77 | 1014.8 |
| 20260906040502 | 60 | 215 | 0.0 | 3.0 | 0.00 | 0.00 | 0.00 | 77 | 1014.8 |
| 20260906040003 | 60 | 215 | 0.0 | 3.0 | 0.00 | 0.00 | 0.00 | 77 | 1014.8 |
| 20260906035503 | 60 | 216 | 0.0 | 3.0 | 0.00 | 0.00 | 0.00 | 77 | 1014.8 |
| 20260906035003 | 61 | 217 | 1.0 | 3.0 | 0.00 | 0.00 | 0.00 | 77 | 1014.8 |
| 20260906034503 | 61 | 217 | 1.0 | 3.0 | 0.00 | 0.00 | 0.00 | 76 | 1014.8 |
| 20260906034003 | 61 | 222 | 1.0 | 3.0 | 0.00 | 0.00 | 0.00 | 76 | 1014.8 |
| 20260906033503 | 61 | 234 | 0.0 | 3.0 | 0.00 | 0.00 | 0.00 | 76 | 1014.8 |
| 20260906033003 | 61 | 278 | 0.0 | 3.0 | 0.00 | 0.00 | 0.00 | 76 | 1014.8 |
| 20260906032502 | 61 | 278 | 0.0 | 3.0 | 0.00 | 0.00 | 0.00 | 76 | 1014.8 |
| 20260906032024 | 62 | 281 | 1.0 | 3.0 | 0.00 | 0.00 | 0.00 | 75 | 1014.8 |
| 20260906031503 | 62 | 282 | 1.0 | 3.0 | 0.00 | 0.00 | 0.00 | 75 | 1014.8 |
| 20260906031003 | 62 | 285 | 0.0 | 3.0 | 0.00 | 0.00 | 0.00 | 75 | 1014.8 |
| 20260906030503 | 62 | 286 | 0.0 | 3.0 | 0.00 | 0.00 | 0.00 | 74 | 1014.8 |
| 20260906030003 | 62 | 287 | 0.0 | 2.0 | 0.00 | 0.00 | 0.00 | 74 | 1014.8 |
| 20260906025503 | 62 | 287 | 0.0 | 2.0 | 0.00 | 0.00 | 0.00 | 74 | 1014.8 |
| 20260906025003 | 63 | 287 | 0.0 | 2.0 | 0.00 | 0.00 | 0.00 | 73 | 1014.8 |
| 20260906024503 | 63 | 288 | 0.0 | 3.0 | 0.00 | 0.00 | 0.00 | 73 | 1014.8 |
| 20260906024024 | 63 | 288 | 0.0 | 3.0 | 0.00 | 0.00 | 0.00 | 73 | 1014.8 |
| 20260906023524 | 63 | 305 | 0.0 | 2.0 | 0.00 | 0.00 | 0.00 | 72 | 1014.8 |
| 20260906023003 | 64 | 287 | 1.0 | 3.0 | 0.00 | 0.00 | 0.00 | 71 | 1014.8 |
| 20260906022524 | 64 | 282 | 1.0 | 3.0 | 0.00 | 0.00 | 0.00 | 71 | 1014.8 |
| 20260906022003 | 64 | 266 | 1.0 | 4.0 | 0.00 | 0.00 | 0.00 | 70 | 1014.8 |
| 20260906021503 | 64 | 259 | 1.0 | 4.0 | 0.00 | 0.00 | 0.00 | 69 | 1014.8 |
| 20260906021024 | 64 | 269 | 1.0 | 4.0 | 0.00 | 0.00 | 0.00 | 69 | 1014.8 |
| 20260906020503 | 65 | 300 | 1.0 | 3.0 | 0.00 | 0.00 | 0.00 | 68 | 1014.8 |
| 20260906020003 | 65 | 292 | 1.0 | 3.0 | 0.00 | 0.00 | 0.00 | 68 | 1014.8 |
| 20260906015503 | 65 | 294 | 1.0 | 3.0 | 0.00 | 0.00 | 0.00 | 68 | 1014.8 |
| 20260906015003 | 66 | 308 | 1.0 | 3.0 | 0.00 | 0.00 | 0.00 | 67 | 1014.8 |
| 20260906014503 | 66 | 294 | 1.0 | 3.0 | 0.00 | 0.00 | 0.00 | 66 | 1014.8 |
| 20260906014003 | 66 | 276 | 1.0 | 7.0 | 0.00 | 0.00 | 0.00 | 65 | 1014.8 |
| 20260906013502 | 66 | 277 | 2.0 | 7.0 | 0.00 | 0.00 | 0.00 | 64 | 1014.8 |
| 20260906013003 | 67 | 285 | 1.0 | 5.0 | 0.00 | 0.00 | 0.00 | 63 | 1014.8 |
| 20260906012503 | 67 | 301 | 1.0 | 5.0 | 0.00 | 0.00 | 0.00 | 63 | 1014.8 |
| 20260906012003 | 67 | 313 | 1.0 | 4.0 | 0.00 | 0.00 | 0.00 | 63 | 1014.8 |
| 20260906011503 | 68 | 314 | 1.0 | 4.0 | 0.00 | 0.00 | 0.00 | 63 | 1014.8 |
| 20260906011003 | 68 | 317 | 1.0 | 5.0 | 0.00 | 0.00 | 0.00 | 62 | 1014.8 |
| 20260906010503 | 68 | 309 | 1.0 | 6.0 | 0.00 | 0.00 | 0.00 | 62 | 1014.8 |
| 20260906010003 | 68 | 308 | 1.0 | 6.0 | 0.00 | 0.00 | 0.00 | 63 | 1014.8 |
| 20260906005503 | 68 | 313 | 2.0 | 5.0 | 0.00 | 0.00 | 0.00 | 64 | 1014.8 |
| 20260906005003 | 68 | 324 | 2.0 | 6.0 | 0.00 | 0.00 | 0.00 | 65 | 1014.8 |
| 20260906004503 | 68 | 317 | 2.0 | 6.0 | 0.00 | 0.00 | 0.00 | 65 | 1014.8 |
| 20260906004003 | 68 | 321 | 1.0 | 6.0 | 0.00 | 0.00 | 0.00 | 65 | 1014.8 |
| 20260906003524 | 68 | 338 | 2.0 | 8.0 | 0.00 | 0.00 | 0.00 | 66 | 1014.8 |
| 20260906003003 | 68 | 325 | 2.0 | 8.0 | 0.00 | 0.00 | 0.00 | 65 | 1014.8 |
| 20260906002503 | 68 | 312 | 2.0 | 5.0 | 0.00 | 0.00 | 0.00 | 64 | 1014.8 |
| 20260906002003 | 68 | 303 | 2.0 | 8.0 | 0.00 | 0.00 | 0.00 | 63 | 1014.8 |
| 20260906001503 | 69 | 309 | 3.0 | 10.0 | 0.00 | 0.00 | 0.00 | 61 | 1014.8 |
| 20260906001024 | 69 | 324 | 3.0 | 11.0 | 0.00 | 0.00 | 0.00 | 60 | 1014.8 |
| 20260906000524 | 70 | 320 | 3.0 | 11.0 | 0.00 | 0.00 | 0.00 | 59 | 1014.8 |
| 20260906000003 | 70 | 310 | 3.0 | 12.0 | 0.00 | 0.00 | 0.00 | 56 | 1014.8 |
| 20260905235503 | 71 | 325 | 3.0 | 15.0 | 0.00 | 0.00 | 0.00 | 56 | 1014.8 |
| 20260905235003 | 71 | 324 | 3.0 | 15.0 | 0.00 | 0.00 | 0.00 | 53 | 1014.8 |
| 20260905234503 | 71 | 324 | 3.0 | 13.0 | 0.00 | 0.00 | 0.00 | 52 | 1014.8 |
| 20260905234024 | 72 | 325 | 4.0 | 13.0 | 0.00 | 0.00 | 0.00 | 53 | 1014.8 |
| 20260905233503 | 72 | 325 | 4.0 | 14.0 | 0.00 | 0.00 | 0.00 | 49 | 1014.8 |
| 20260905233003 | 72 | 327 | 3.0 | 14.0 | 0.00 | 0.00 | 0.00 | 50 | 1014.8 |
| 20260905232524 | 72 | 329 | 3.0 | 11.0 | 0.00 | 0.00 | 0.00 | 50 | 1014.8 |
| 20260905232024 | 72 | 330 | 3.0 | 13.0 | 0.00 | 0.00 | 0.00 | 49 | 1014.8 |
| 20260905231503 | 73 | 323 | 3.0 | 13.0 | 0.00 | 0.00 | 0.00 | 49 | 1014.8 |
| 20260905231003 | 73 | 332 | 4.0 | 12.0 | 0.00 | 0.00 | 0.00 | 51 | 1014.8 |
| 20260905230503 | 73 | 328 | 3.0 | 12.0 | 0.00 | 0.00 | 0.00 | 51 | 1014.8 |
| 20260905230003 | 73 | 299 | 2.0 | 8.0 | 0.00 | 0.00 | 0.00 | 50 | 1014.8 |
| 20260905225524 | 73 | 274 | 3.0 | 9.0 | 0.00 | 0.00 | 0.00 | 51 | 1014.8 |
| 20260905225024 | 73 | 266 | 3.0 | 11.0 | 0.00 | 0.00 | 0.00 | 51 | 1014.8 |
| 20260905224503 | 73 | 292 | 3.0 | 11.0 | 0.00 | 0.00 | 0.00 | 50 | 1014.8 |
| 20260905224003 | 74 | 322 | 3.0 | 8.0 | 0.00 | 0.00 | 0.00 | 50 | 1014.8 |
| 20260905223503 | 74 | 321 | 3.0 | 8.0 | 0.00 | 0.00 | 0.00 | 50 | 1014.8 |
| 20260905223003 | 74 | 326 | 3.0 | 14.0 | 0.00 | 0.00 | 0.00 | 48 | 1014.8 |
| 20260905222503 | 75 | 328 | 3.0 | 14.0 | 0.00 | 0.00 | 0.00 | 48 | 1014.8 |
| 20260905222003 | 75 | 315 | 3.0 | 9.0 | 0.00 | 0.00 | 0.00 | 48 | 1014.8 |
| 20260905221503 | 75 | 310 | 3.0 | 10.0 | 0.00 | 0.00 | 0.00 | 46 | 1014.8 |
| 20260905221003 | 75 | 311 | 3.0 | 10.0 | 0.00 | 0.00 | 0.00 | 46 | 1014.8 |
| 20260905220503 | 75 | 333 | 2.0 | 10.0 | 0.00 | 0.00 | 0.00 | 46 | 1014.8 |
| 20260905220003 | 75 | 336 | 3.0 | 11.0 | 0.00 | 0.00 | 0.00 | 47 | 1014.8 |
| 20260905215503 | 75 | 322 | 3.0 | 11.0 | 0.00 | 0.00 | 0.00 | 46 | 1014.8 |
| 20260905215024 | 75 | 296 | 3.0 | 10.0 | 0.00 | 0.00 | 0.00 | 48 | 1014.8 |